Back to catalog

ARIANE 42L+3 R/B

AliveGTO
NORAD 23687·ROCKET BODY·🇫🇷 France

Launched Oct 19, 1995 from Guiana Space Centre

Loading…

TLE

AgingSource: Space-Track

Epoch: Sep 14, 2026, 02:25 UTC

1 23687U 95055B   26257.10086031  .00000049  00000-0  54014-3 0  9991
2 23687   4.5106 225.1986 7236897  50.6664 353.7084  2.22344220250048

Track ARIANE 42L+3 R/B in real time with AllMySat

Download on the App Store